Gwinn, MI

1:54 AM EDT on July 28, 2016 (GMT -0400)
Sawyer International

Weather History for KSAW - October, 2012

Change the Weather History Date:

Thursday, October 4, 2012

  Actual Average (KESC) Record (KESC)
Temperature  
Mean Temperature 53 °F -  
Max Temperature 71 °F 58 °F 75 °F (1958)
Min Temperature 35 °F 42 °F 21 °F (1999)
Degree Days  
Heating Degree Days 12    
Growing Degree Days 3 (Base 50)    
Moisture  
Dew Point 40 °F    
Average Humidity 74    
Maximum Humidity 93    
Minimum Humidity 32    
Precipitation  
Precipitation 0.00 in - - ()
Sea Level Pressure  
Sea Level Pressure 29.90 in    
Wind  
Wind Speed 4 mph (SW)    
Max Wind Speed 21 mph    
Max Gust Speed 28 mph    
Visibility 7 miles    
Events Fog    
Averages and records for this station are not official NWS values.
T = Trace of Precipitation, MM = Missing Value Source: NWS Daily Summary

Daily Weather History Graph

Daily Weather History Graph

Search for Another Location

Airport or City:

Trip Planner

Search our weather history database for the weather conditions in past years. The results will help you decide how hot, cold, wet, or windy it might be!

Date:

Astronomy

Oct. 04, 2012 Rise Set
Actual Time 7:52 AM EDT 7:22 PM EDT
Civil Twilight 7:22 AM EDT 7:52 PM EDT
Nautical Twilight 6:47 AM EDT 8:27 PM EDT
Astronomical Twilight 6:12 AM EDT 9:02 PM EDT
Moon 9:42 PM EDT (10/4) 12:25 PM EDT (10/4)
Length of Visible Light 12h 29m
Length of Day
11h 30m
Waning Gibbous, 82% of the Moon is Illuminated
Oct 4
Waning Gibbous
Oct 8
Last Quarter
Oct 15
New
Oct 21
First Quarter
Oct 29
Full

Hourly Weather History & Observations

Time (EDT) Temp. Windchill Dew Point Humidity Pressure Visibility Wind Dir Wind Speed Gust Speed Precip Events Conditions
12:16 AM 49.1 °F - 45.0 °F 86% 29.99 in 10.0 mi SW 3.5 mph - N/A   Clear
12:36 AM 47.8 °F - 44.1 °F 87% 29.99 in 10.0 mi Calm Calm - N/A   Clear
12:56 AM 47.8 °F - 44.4 °F 88% 29.99 in 10.0 mi Calm Calm - N/A   Clear
1:16 AM 47.3 °F - 44.4 °F 90% 29.98 in 10.0 mi Calm Calm - N/A   Clear
1:36 AM 45.9 °F - 43.0 °F 90% 29.98 in 2.0 mi Calm Calm - N/A   Clear
1:56 AM 45.9 °F - 43.5 °F 92% 29.98 in 7.0 mi Calm Calm - N/A   Clear
2:16 AM 43.9 °F - 41.0 °F 90% 29.97 in 0.8 mi Calm Calm - N/A   Mist
2:35 AM 43.9 °F 42.3 °F 40.5 °F 88% 29.97 in - WSW 3.5 mph - N/A   Unknown
2:56 AM 43.2 °F 40.5 °F 40.3 °F 90% 29.97 in 10.0 mi West 4.6 mph - N/A   Clear
3:16 AM 43.5 °F - 41.0 °F 91% 29.96 in 1.0 mi Calm Calm - N/A   Mist
3:35 AM 43.2 °F - 40.3 °F 90% 29.96 in 7.0 mi Calm Calm - N/A   Clear
3:56 AM 44.2 °F - 41.5 °F 90% 29.95 in 0.8 mi Calm Calm - N/A   Mist
4:16 AM 41.7 °F - 38.8 °F 89% 29.95 in 0.8 mi Calm Calm - N/A   Mist
4:36 AM 41.0 °F - 38.3 °F 90% 29.94 in 7.0 mi Calm Calm - N/A   Clear
4:56 AM 40.3 °F - 37.8 °F 91% 29.94 in 1.0 mi Calm Calm - N/A   Mist
5:16 AM 40.3 °F - 38.1 °F 92% 29.94 in 4.0 mi Calm Calm - N/A   Scattered Clouds
5:36 AM 39.6 °F - 36.9 °F 90% 29.94 in 10.0 mi Calm Calm - N/A   Scattered Clouds
5:56 AM 39.2 °F - 36.7 °F 91% 29.94 in 5.0 mi Calm Calm - N/A   Scattered Clouds
6:50 AM 41.0 °F - 39.2 °F 93% 29.93 in 1.8 mi Calm Calm - N/A   Mostly Cloudy
7:22 AM 35.6 °F - 33.8 °F 93% 29.93 in 0.5 mi Calm Calm - N/A Fog Fog
7:50 AM 37.4 °F - 35.6 °F 93% 29.92 in 0.8 mi Calm Calm - N/A   Overcast
8:25 AM 39.2 °F - 37.4 °F 93% 29.91 in 4.0 mi Calm Calm - N/A   Mostly Cloudy
8:50 AM 41.0 °F 39.0 °F 39.2 °F 93% 29.91 in 2.0 mi SW 3.5 mph - N/A   Overcast
9:15 AM 42.8 °F 41.1 °F 41.0 °F 93% 29.91 in 0.2 mi South 3.5 mph - N/A Fog Fog
9:50 AM 46.4 °F 44.3 °F 42.8 °F 87% 29.91 in 0.2 mi SSW 4.6 mph - N/A Fog Fog
10:15 AM 48.2 °F - 46.4 °F 93% 29.90 in 7.0 mi South 4.6 mph - N/A   Scattered Clouds
10:50 AM 55.4 °F - 50.0 °F 82% 29.88 in 7.0 mi South 6.9 mph - N/A   Clear
11:50 AM 60.8 °F - 48.2 °F 63% 29.85 in 10.0 mi South 10.4 mph - N/A   Clear
12:50 PM 62.6 °F - 48.2 °F 59% 29.83 in 10.0 mi South 13.8 mph - N/A   Clear
1:50 PM 64.4 °F - 50.0 °F 59% 29.80 in 10.0 mi South 15.0 mph 20.7 mph N/A   Scattered Clouds
2:50 PM 66.2 °F - 51.8 °F 60% 29.77 in 10.0 mi South 16.1 mph 23.0 mph N/A   Mostly Cloudy
3:55 PM 68.0 °F - 51.8 °F 56% 29.74 in 10.0 mi South 18.4 mph - N/A   Scattered Clouds
4:50 PM 71.6 °F - 44.6 °F 38% 29.74 in 10.0 mi SSW 20.7 mph 26.5 mph N/A   Mostly Cloudy
5:50 PM 69.8 °F - 41.0 °F 35% 29.74 in 10.0 mi SW 19.6 mph 25.3 mph N/A   Clear
6:50 PM 64.4 °F - 33.8 °F 32% 29.77 in 10.0 mi WSW 17.3 mph 27.6 mph N/A   Clear
7:50 PM 59.0 °F - 32.0 °F 36% 29.80 in 10.0 mi WSW 16.1 mph 24.2 mph N/A   Clear
8:50 PM 55.4 °F - 32.0 °F 41% 29.82 in 10.0 mi WSW 13.8 mph 23.0 mph N/A   Clear
9:50 PM 51.8 °F - 30.2 °F 44% 29.85 in 10.0 mi West 18.4 mph 21.9 mph N/A   Clear
10:16 PM 49.5 °F - 30.2 °F 48% 29.85 in 10.0 mi West 13.8 mph 21.9 mph N/A   Clear
10:36 PM 48.4 °F - 30.2 °F 49% 29.86 in 10.0 mi WSW 17.3 mph - N/A   Clear
10:56 PM 47.7 °F - 29.8 °F 50% 29.86 in 10.0 mi WSW 13.8 mph 19.6 mph N/A   Clear
11:16 PM 46.8 °F - 29.7 °F 51% 29.87 in 10.0 mi WSW 12.7 mph 18.4 mph N/A   Clear
11:36 PM 45.9 °F 40.8 °F 29.5 °F 53% 29.86 in 10.0 mi WSW 10.4 mph - N/A   Clear
11:56 PM 45.5 °F 39.6 °F 29.7 °F 54% 29.87 in 10.0 mi SW 12.7 mph - N/A   Scattered Clouds